Weather Roundup
Issued by NWS Corpus Christi, TX

Home | Current Version | Previous Version | Text Only | Print | Product List | Glossary On
Versions: 1 2 3 4 5 6 7 8 9 10 11 12 13 14 15 16 17 18 19 20 21 22 23 24 25 26 27 28 29 30 31 32 33 34 35 36 37 38 39 40 41 42 43 44 45 46 47 48 49 50
000
ASUS44 KCRP 162210
HRRCRP

SOUTH TEXAS REGIONAL WEATHER ROUNDUP
NATIONAL WEATHER SERVICE CORPUS CHRISTI TX
500 PM CDT WED AUG 16 2017


TXZ229>244-162300-
...CORPUS CHRISTI AREA OBSERVATIONS...

CITY           SKY/WX    TMP DP  RH WIND       PRES   REMARKS
CORPUS CHRISTI MOSUNNY   94  76  55 SE20G33   29.88F HX 106
NAS CORPUS CHR NOT AVBL
ROCKPORT       MOSUNNY   91  78  65 SE17G24   29.90F HX 106
KINGSVILLE NAS MOSUNNY   96  78  56 SE22G33   29.86F HX 112
ALICE          MOSUNNY   98  73  44 SE22G28   29.84F HX 108
FALFURRIAS     SUNNY    102  65  30 S15G22    29.83F HX 105
$$

...VICTORIA AREA OBSERVATIONS...

CITY           SKY/WX    TMP DP  RH WIND       PRES   REMARKS
VICTORIA       MOSUNNY   93  73  52 S20       29.91F HX 102
BEEVILLE       FAIR      97  74  48 SE14G28   29.87F HX 108
PLEASANTON     MOSUNNY  100  63  29 SE9G16    29.85F HX 102
SAN ANTONIO    MOSUNNY   95  68  41 S12       29.88F HX  99
$$

...LAREDO AREA OBSERVATIONS...

CITY           SKY/WX    TMP DP  RH WIND       PRES   REMARKS
LAREDO         SUNNY    103  68  32 SE17G24   29.81F HX 109
COTULLA        MOSUNNY  103  62  26 S13G18    29.82F HX 105
DEL RIO        CLOUDY    97  71  42 S6        29.83F HX 104
MCALLEN        MOSUNNY  101  72  39 SE18G29   29.84F HX 110
HEBBRONVILLE   SUNNY     99  64  32 S16G22    29.85F HX 101
$$

...OTHER TEXAS OBSERVATIONS...

CITY           SKY/WX    TMP DP  RH WIND       PRES   REMARKS
BROWNSVILLE    MOSUNNY   92  78  63 SE23      29.89F HX 107
HOUSTON        CLOUDY    93  75  55 S13       29.92F HX 104
COL. STATION   MOSUNNY   96  74  48 S17       29.89F HX 107
AUSTIN         MOSUNNY   99  69  37 S13       29.87F HX 105
WACO           MOSUNNY   96  70  42 S17       29.87F HX 102
FORT WORTH     CLOUDY    95  73  48 S14       29.85F HX 104
WICHITA FALLS  MOSUNNY   92  73  53 S12       29.84S HX 100
LUBBOCK        MOSUNNY   91  59  33 VRB2      29.98R HX  90
EL PASO        MOSUNNY   93  45  19 W8G18     30.02F
$$

...MARINE OBSERVATIONS...

STATION/POSITION TIME  SKY/WX   TEMP    WIND        PRES    VSBY  WAVE   SWELL
                                AIR SEA DIR/SP/G                  HT/PER HT/PER
                 (UTC)          (F)     (DEG/KT/KT) (MB)    (MI)  (FT/S) (FT/S)
PORT ARANSAS     2100            85 88  130/ 13/ 14 1013.3F
BUOY 90 E PORT A 2050            87 86  140/ 14/ 16 1014.4          6/ 7   3/ 7
BUOY 45 SE BAFFI 2150            86     160/ 16/ 19 1012.0F         6/ 8   3/ 8
BUOY 200 E PT IS 2050            87 88  150/ 14/ 16 1015.4          5/ 7   3/ 7
BUOY 15 E GALVES 2150            87 87  190/ 14/ 17 1014.9S         4/ 7   2/14
$$




USA.gov is the U.S. government's official web portal to all federal, state and local government web resources and services.